EGPF

Glasgow International Airport

Airport
ICAO code
EGPF
IATA Code
GLA
Summary
ICAO Region
EUR
ICAO Territory
Location

Paisley, Scotland

Serving
Glasgow
Elevation
26 ft
Coordinates
55° 52' 5" N , 4° 26' 9" W
KCC
Metar
Observation
EGPF 070220Z AUTO VRB01KT 9999 NCD M04/M05 Q1027
Station
Glasgow Airport
Date/Time
2022-12-07 02:20:00
Wind speed
01 kts
Lowest cloud amount
no clouds detected
Temperature
-4°C
Dew point
-5°C
Humidity
92%
QNH
1027 hPa
Weather condition
n/a

Description

A domestic and international airport serving the City of Glasgow and the surrounding region.

Climatology

Temperate Marine climate/Oceanic climate (Köppen climate classification Cfb). Moderately cool summer and comparatively warm winter with a temperature range of only 14°C. Prevailing south-westerly winds from the Atlantic Ocean.

Runways

Designator Length Width Surface Rops
9/27 1104 46 ASP Yes/Yes
5/23 2658 46 ASP Yes/Yes

SKYbrary Partners:

Safety knowledge contributed by: